Tracking 30685 objects as of 18-Jun-2025
HD Live streaming from Space Station
objects crossing your sky now

NOAA 16 DEB

Track NOAA 16 DEB now!
10-day predictions


NORAD ID: 41414
Int'l Code: 2000-055KT
Perigee: 518.5 km
Apogee: 541.9 km
Inclination: 98.9 °
Period: 95.1 minutes
Semi major axis: 6901 km
RCS: Unknown
Launch date: September 21, 2000
Source: United States (US)
Launch site: AIR FORCE WESTERN TEST RANGE (AFWTR)

Note: This is SATELLITE DEBRIS
Your satellite tracking list
Your tracking list is empty




NASA's NSSDC Master Catalog

Two Line Element Set (TLE):
1 41414U 00055KT  25169.39892749  .00130428  00000-0  69799-2 0  9998
2 41414  98.9412  50.2991 0016955  41.2163 319.0341 15.14315340488084
Source of the keplerian elements: AFSPC